Weather History for Mosby, MO

Change the Weather History Date:

Wednesday, May 1, 2013

  Actual Average (KMKC) Record (KMKC)
Temperature  
Mean Temperature 60 °F -  
Max Temperature 77 °F 69 °F 84 °F (2001)
Min Temperature 44 °F 50 °F 37 °F (2005)
Degree Days  
Heating Degree Days 4    
Growing Degree Days 10 (Base 50)    
Moisture  
Dew Point 51 °F    
Average Humidity 62    
Maximum Humidity 88    
Minimum Humidity 49    
Precipitation  
Precipitation 0.00 in - - ()
Sea Level Pressure  
Sea Level Pressure 29.99 in    
Wind  
Wind Speed 7 mph (NNE)    
Max Wind Speed 28 mph    
Max Gust Speed 33 mph    
Visibility 10 miles    
Events Rain , Thunderstorm    
Averages and records for this station are not official NWS values.
T = Trace of Precipitation, MM = Missing Value Source: NWS Daily Summary

Daily Weather History Graph

Daily Weather History Graph

Search for Another Location

Airport:

Trip Planner

Search our weather history database for the weather conditions in past years. The results will help you decide how hot, cold, wet, or windy it might be!

Date:

Astronomy

May. 01, 2013 Rise Set
Actual Time 6:18 AM CDT 8:10 PM CDT
Civil Twilight 5:49 AM CDT 8:40 PM CDT
Nautical Twilight 5:14 AM CDT 9:15 PM CDT
Astronomical Twilight 4:36 AM CDT 9:53 PM CDT
Moon 1:20 AM CDT (5/1) 11:57 AM CDT (5/1)
Length of Visible Light 14h 50m
Length of Day
13h 52m
Waning Gibbous, 59% of the Moon is Illuminated
May 1
Waning Gibbous
May 2
Last Quarter
May 9
New
May 17
First Quarter
May 24
Full

Hourly Weather History & Observations

Time (CDT) Temp. Windchill Dew Point Humidity Pressure Visibility Wind Dir Wind Speed Gust Speed Precip Events Conditions
12:15 AM 68.0 °F - 51.8 °F 56% 29.84 in 10.0 mi SE 4.6 mph - N/A   Clear
12:35 AM 66.2 °F - 50.0 °F 56% 29.84 in 10.0 mi SE 3.5 mph - N/A   Clear
12:55 AM 68.0 °F - 50.0 °F 52% 29.84 in 10.0 mi SSE 6.9 mph - N/A   Clear
1:15 AM 68.0 °F - 50.0 °F 52% 29.85 in 10.0 mi SSE 9.2 mph - N/A   Clear
1:35 AM 68.0 °F - 48.2 °F 49% 29.85 in 10.0 mi SSE 5.8 mph - N/A   Clear
1:55 AM 68.0 °F - 48.2 °F 49% 29.86 in 10.0 mi SSE 5.8 mph - N/A   Clear
2:15 AM 68.0 °F - 48.2 °F 49% 29.86 in 10.0 mi SSE 4.6 mph - N/A   Clear
2:35 AM 66.2 °F - 48.2 °F 52% 29.87 in 10.0 mi Calm Calm - N/A   Clear
2:55 AM 64.4 °F - 50.0 °F 59% 29.87 in 10.0 mi SE 4.6 mph - N/A   Unknown
3:15 AM 64.4 °F - 50.0 °F 59% 29.88 in 10.0 mi ESE 3.5 mph - N/A   Clear
3:35 AM 62.6 °F - 50.0 °F 63% 29.89 in 10.0 mi Calm Calm - N/A   Clear
3:55 AM 59.0 °F - 50.0 °F 72% 29.89 in 10.0 mi Calm Calm - N/A   Clear
4:15 AM 57.2 °F - 50.0 °F 77% 29.90 in 10.0 mi Calm Calm - N/A   Clear
4:35 AM 57.2 °F - 50.0 °F 77% 29.90 in 10.0 mi Calm Calm - N/A   Clear
4:55 AM 55.4 °F - 50.0 °F 82% 29.91 in 10.0 mi Calm Calm - N/A   Clear
5:15 AM 55.4 °F - 50.0 °F 82% 29.92 in 10.0 mi Calm Calm - N/A   Mostly Cloudy
5:35 AM 57.2 °F - 50.0 °F 77% 29.93 in 10.0 mi Calm Calm - N/A   Unknown
5:55 AM 59.0 °F - 50.0 °F 72% 29.93 in 10.0 mi Calm Calm - N/A   Mostly Cloudy
6:15 AM 59.0 °F - 50.0 °F 72% 29.94 in 10.0 mi Calm Calm - N/A   Mostly Cloudy
6:35 AM 55.4 °F - 51.8 °F 88% 29.95 in 10.0 mi Calm Calm - N/A   Scattered Clouds
6:55 AM 59.0 °F - 50.0 °F 72% 29.95 in 10.0 mi Calm Calm - N/A   Clear
7:15 AM 59.0 °F - 51.8 °F 77% 29.96 in 10.0 mi Calm Calm - N/A   Clear
7:35 AM 59.0 °F - 53.6 °F 82% 29.97 in 10.0 mi Calm Calm - N/A   Clear
7:55 AM 62.6 °F - 51.8 °F 68% 29.97 in 10.0 mi ESE 3.5 mph - N/A   Scattered Clouds
8:15 AM 64.4 °F - 51.8 °F 64% 29.97 in 10.0 mi SE 3.5 mph - N/A   Mostly Cloudy
8:35 AM 66.2 °F - 53.6 °F 64% 29.98 in 10.0 mi SSE 4.6 mph - N/A   Scattered Clouds
8:55 AM 68.0 °F - 53.6 °F 60% 29.98 in 10.0 mi SSE 5.8 mph - N/A   Scattered Clouds
9:15 AM 68.0 °F - 53.6 °F 60% 29.98 in 10.0 mi SSE 5.8 mph - N/A   Scattered Clouds
9:35 AM 69.8 °F - 53.6 °F 56% 29.99 in 10.0 mi Calm Calm - N/A   Clear
9:55 AM 71.6 °F - 53.6 °F 53% 29.99 in 10.0 mi Calm Calm - N/A   Clear
10:15 AM 69.8 °F - 55.4 °F 60% 29.99 in 10.0 mi North 5.8 mph - N/A   Clear
10:35 AM 71.6 °F - 55.4 °F 57% 30.00 in 10.0 mi North 6.9 mph - N/A   Mostly Cloudy
10:55 AM 71.6 °F - 55.4 °F 57% 30.01 in 10.0 mi Calm Calm - N/A   Mostly Cloudy
11:15 AM 71.6 °F - 55.4 °F 57% 30.01 in 10.0 mi North 4.6 mph - N/A   Scattered Clouds
11:35 AM 73.4 °F - 55.4 °F 53% 30.01 in 10.0 mi Calm Calm - N/A   Clear
11:55 AM 73.4 °F - 55.4 °F 53% 30.02 in 10.0 mi NNW 4.6 mph - N/A   Clear
12:15 PM 73.4 °F - 55.4 °F 53% 30.01 in 10.0 mi North 3.5 mph - N/A   Clear
12:35 PM 75.2 °F - 57.2 °F 53% 30.01 in 10.0 mi NNE 5.8 mph - N/A   Clear
12:55 PM 75.2 °F - 57.2 °F 53% 30.01 in 10.0 mi NNE 6.9 mph - N/A   Scattered Clouds
1:15 PM 75.2 °F - 57.2 °F 53% 30.00 in 10.0 mi NNE 12.7 mph - N/A   Scattered Clouds
1:35 PM 75.2 °F - 59.0 °F 57% 29.99 in 10.0 mi ENE 10.4 mph - N/A   Clear
1:55 PM 77.0 °F - 59.0 °F 54% 29.99 in 10.0 mi NE 11.5 mph - N/A   Clear
2:15 PM 77.0 °F - 59.0 °F 54% 29.98 in 10.0 mi ENE 10.4 mph - N/A   Clear
2:35 PM 77.0 °F - 59.0 °F 54% 29.98 in 10.0 mi NNE 9.2 mph - N/A   Scattered Clouds
2:55 PM 77.0 °F - 59.0 °F 54% 29.98 in 10.0 mi North 5.8 mph - N/A   Mostly Cloudy
3:15 PM 77.0 °F - 59.0 °F 54% 29.98 in 10.0 mi North 9.2 mph - N/A   Mostly Cloudy
3:35 PM 77.0 °F - 59.0 °F 54% 29.99 in 10.0 mi North 6.9 mph - N/A   Mostly Cloudy
3:55 PM 77.0 °F - 59.0 °F 54% 29.98 in 10.0 mi North 16.1 mph - N/A   Mostly Cloudy
4:15 PM 75.2 °F - 59.0 °F 57% 29.99 in 10.0 mi NNW 19.6 mph - N/A   Mostly Cloudy
4:35 PM 71.6 °F - 55.4 °F 57% 29.99 in 10.0 mi North 19.6 mph 24.2 mph N/A   Mostly Cloudy
4:55 PM 71.6 °F - 53.6 °F 53% 30.00 in 10.0 mi North 21.9 mph - N/A   Scattered Clouds
5:15 PM 69.8 °F - 51.8 °F 53% 30.00 in 10.0 mi North 23.0 mph 26.5 mph N/A   Scattered Clouds
5:35 PM 69.8 °F - 51.8 °F 53% 30.00 in 10.0 mi North 17.3 mph 26.5 mph N/A   Scattered Clouds
5:55 PM 69.8 °F - 51.8 °F 53% 30.01 in 10.0 mi North 18.4 mph 27.6 mph N/A   Scattered Clouds
6:15 PM 68.0 °F - 50.0 °F 52% 30.01 in 10.0 mi North 21.9 mph 26.5 mph N/A   Scattered Clouds
6:35 PM 68.0 °F - 50.0 °F 52% 30.03 in 10.0 mi North 20.7 mph 26.5 mph N/A   Mostly Cloudy
6:55 PM 66.2 °F - 50.0 °F 56% 30.04 in 10.0 mi NNW 20.7 mph 29.9 mph N/A   Scattered Clouds
7:15 PM 62.6 °F - 46.4 °F 55% 30.05 in 10.0 mi North 17.3 mph 29.9 mph N/A   Mostly Cloudy
7:35 PM 60.8 °F - 46.4 °F 59% 30.06 in 10.0 mi North 27.6 mph 33.4 mph N/A   Overcast
7:55 PM 59.0 °F - 44.6 °F 59% 30.07 in 10.0 mi North 19.6 mph 29.9 mph N/A   Overcast
8:15 PM 57.2 °F - 44.6 °F 63% 30.08 in 10.0 mi North 19.6 mph 28.8 mph N/A   Overcast
8:35 PM 55.4 °F - 42.8 °F 63% 30.10 in 10.0 mi North 16.1 mph 24.2 mph N/A   Mostly Cloudy
8:55 PM 51.8 °F - 42.8 °F 71% 30.12 in 10.0 mi NNW 18.4 mph 28.8 mph N/A   Overcast
9:15 PM 50.0 °F - 41.0 °F 71% 30.12 in 10.0 mi North 20.7 mph 25.3 mph N/A   Mostly Cloudy
9:35 PM 50.0 °F - 41.0 °F 71% 30.15 in 10.0 mi North 20.7 mph 27.6 mph N/A   Mostly Cloudy
9:55 PM 48.2 °F - 41.0 °F 76% 30.16 in 10.0 mi North 25.3 mph 29.9 mph N/A   Overcast
10:15 PM 46.4 °F 39.8 °F 39.2 °F 76% 30.19 in 10.0 mi NNW 16.1 mph 26.5 mph N/A   Overcast
10:35 PM 46.4 °F 38.5 °F 39.2 °F 76% 30.19 in 10.0 mi North 21.9 mph 26.5 mph N/A Rain , Thunderstorm Light Thunderstorms and Rain
10:55 PM 44.6 °F 36.6 °F 39.2 °F 81% 30.18 in 10.0 mi North 19.6 mph 26.5 mph N/A   Overcast
11:15 PM 44.6 °F 36.4 °F 37.4 °F 76% 30.17 in 10.0 mi North 20.7 mph 26.5 mph N/A   Overcast
11:35 PM 44.6 °F 36.9 °F 37.4 °F 76% 30.16 in 10.0 mi North 18.4 mph 27.6 mph N/A   Overcast
11:55 PM 44.6 °F 37.2 °F 37.4 °F 76% 30.18 in 10.0 mi North 17.3 mph 23.0 mph N/A Rain , Thunderstorm Light Thunderstorms and Rain